When you browse on this site, cookies collect data to enhance your experience and personalize the content and advertising you see.
Visit our Privacy Policy to learn more. By continuing to use the site, you agree to this use of cookies and data.
  • In Lithuania
  • List of Countries
  • For 7 days
  • Water Temperature
  • Satellite Maps
  • Weather Map
  • Weather Widgets
  • user-avatar
    Login

    Hourly Weather Kurow

    Today, 17 February, Sunday

    Time Temperature Precipitation Wind Pressure Humidity
    00:00 +5°C° 0 mm 2 mps 756 mmHg 59%
    01:00 +4°C° 0 mm 3 mps 756 mmHg 59%
    02:00 +5°C° 0 mm 2 mps 756 mmHg 59%
    03:00 +4°C° 0 mm 2 mps 756 mmHg 60%
    04:00 +4°C° 0 mm 2 mps 756 mmHg 60%
    05:00 +4°C° 0 mm 2 mps 756 mmHg 61%
    06:00 +3°C° 0 mm 2 mps 756 mmHg 61%
    07:00 +3°C° 0 mm 1 mps 756 mmHg 59%
    08:00 +5°C° 0 mm 1 mps 756 mmHg 56%
    09:00 +7°C° 0 mm 1 mps 756 mmHg 53%
    10:00 +8°C° 0 mm 1 mps 756 mmHg 50%
    11:00 +10°C° 0 mm 1 mps 756 mmHg 48%
    12:00 +11°C° 0 mm 1 mps 756 mmHg 45%
    13:00 +13°C° 0 mm 1 mps 755 mmHg 41%
    14:00 +13°C° 0 mm 1 mps 755 mmHg 45%
    15:00 +12°C° 0 mm 0 mps 755 mmHg 49%
    16:00 +11°C° 0 mm 0 mps 755 mmHg 53%
    17:00 +11°C° 0 mm 1 mps 755 mmHg 57%
    18:00 +9°C° 0 mm 1 mps 755 mmHg 61%
    19:00 +8°C° 0 mm 1 mps 755 mmHg 65%
    20:00 +7°C° 0 mm 1 mps 755 mmHg 65%
    21:00 +7°C° 0 mm 1 mps 755 mmHg 66%
    22:00 +6°C° 0 mm 1 mps 755 mmHg 66%
    23:00 +6°C° 0 mm 1 mps 755 mmHg 65%

    Tomorrow, 18 February, Monday

    Time Temperature Precipitation Wind Pressure Humidity
    00:00 +5°C° 0 mm 1 mps 755 mmHg 64%
    01:00 +5°C° 0 mm 1 mps 755 mmHg 63%
    02:00 +5°C° 0 mm 1 mps 754 mmHg 63%
    03:00 +5°C° 0 mm 1 mps 754 mmHg 63%
    04:00 +4°C° 0 mm 1 mps 754 mmHg 63%
    05:00 +4°C° 0 mm 1 mps 754 mmHg 63%
    06:00 +4°C° 0 mm 1 mps 754 mmHg 64%
    07:00 +4°C° 0 mm 1 mps 754 mmHg 64%
    08:00 +5°C° 0 mm 1 mps 754 mmHg 60%
    09:00 +7°C° 0 mm 1 mps 754 mmHg 56%
    10:00 +9°C° 0 mm 1 mps 754 mmHg 52%
    11:00 +10°C° 0 mm 1 mps 754 mmHg 49%
    12:00 +12°C° 0 mm 1 mps 753 mmHg 45%
    13:00 +13°C° 0 mm 1 mps 753 mmHg 41%
    14:00 +13°C° 0 mm 1 mps 753 mmHg 45%
    15:00 +12°C° 0 mm 1 mps 752 mmHg 48%
    16:00 +12°C° 0 mm 1 mps 752 mmHg 52%
    17:00 +11°C° 0 mm 1 mps 752 mmHg 57%
    18:00 +8°C° 0 mm 2 mps 752 mmHg 61%
    19:00 +7°C° 0 mm 2 mps 752 mmHg 66%
    20:00 +6°C° 0 mm 2 mps 752 mmHg 68%
    21:00 +5°C° 0 mm 2 mps 751 mmHg 69%
    22:00 +5°C° 0 mm 2 mps 751 mmHg 71%
    23:00 +4°C° 0 mm 2 mps 751 mmHg 72%

    Day after tomorrow, 19 February, Tuesday

    Time Temperature Precipitation Wind Pressure Humidity
    00:00 +4°C° 0 mm 2 mps 751 mmHg 73%
    01:00 +4°C° 0 mm 2 mps 751 mmHg 74%
    02:00 +3°C° 0 mm 2 mps 751 mmHg 75%
    03:00 +3°C° 0 mm 2 mps 750 mmHg 77%
    04:00 +3°C° 0 mm 2 mps 750 mmHg 78%
    05:00 +3°C° 0 mm 2 mps 750 mmHg 79%
    06:00 +2°C° 0 mm 2 mps 750 mmHg 80%
    07:00 +2°C° 0 mm 2 mps 750 mmHg 82%
    08:00 +3°C° 0 mm 3 mps 749 mmHg 76%
    09:00 +5°C° 0 mm 3 mps 749 mmHg 70%
    10:00 +7°C° 0 mm 3 mps 749 mmHg 64%
    11:00 +8°C° 0 mm 4 mps 749 mmHg 60%
    12:00 +10°C° 0 mm 4 mps 749 mmHg 56%
    13:00 +11°C° 0 mm 4 mps 749 mmHg 52%
    14:00 +10°C° 0 mm 4 mps 748 mmHg 55%
    15:00 +10°C° 0 mm 4 mps 748 mmHg 57%
    16:00 +8°C° 0 mm 4 mps 748 mmHg 59%
    17:00 +7°C° 0 mm 4 mps 748 mmHg 64%
    18:00 +6°C° 0 mm 4 mps 748 mmHg 68%
    19:00 +5°C° 0 mm 4 mps 749 mmHg 73%
    20:00 +5°C° 0.5 mm 4 mps 749 mmHg 78%
    21:00 +5°C° 0.5 mm 5 mps 749 mmHg 83%
    22:00 +5°C° 0.5 mm 5 mps 750 mmHg 88%
    23:00 +5°C° 0.1 mm 5 mps 750 mmHg 88%

    20 February, Wednesday

    Time Temperature Precipitation Wind Pressure Humidity
    00:00 +4°C° 0.1 mm 4 mps 750 mmHg 88%
    01:00 +4°C° 0.1 mm 4 mps 750 mmHg 88%
    02:00 +3°C° 0 mm 4 mps 751 mmHg 88%
    03:00 +3°C° 0 mm 4 mps 751 mmHg 88%
    04:00 +1°C° 0 mm 4 mps 751 mmHg 88%
    05:00 +1°C° 0 mm 4 mps 751 mmHg 88%
    06:00 +1°C° 0 mm 4 mps 752 mmHg 88%
    07:00 +1°C° 0 mm 4 mps 752 mmHg 88%
    08:00 +3°C° 0 mm 4 mps 752 mmHg 84%
    09:00 +3°C° 0 mm 5 mps 753 mmHg 80%
    10:00 +5°C° 0 mm 5 mps 753 mmHg 76%
    11:00 +6°C° 0 mm 5 mps 753 mmHg 72%
    12:00 +6°C° 0 mm 5 mps 753 mmHg 67%
    13:00 +7°C° 0 mm 5 mps 753 mmHg 63%
    14:00 +7°C° 0 mm 5 mps 753 mmHg 63%
    15:00 +6°C° 0 mm 4 mps 753 mmHg 64%
    16:00 +6°C° 0 mm 4 mps 753 mmHg 64%
    17:00 +6°C° 0 mm 4 mps 753 mmHg 68%
    18:00 +5°C° 0 mm 3 mps 754 mmHg 72%
    19:00 +4°C° 0 mm 3 mps 754 mmHg 76%
    20:00 +4°C° 0 mm 3 mps 754 mmHg 77%
    21:00 +4°C° 0 mm 3 mps 755 mmHg 79%
    22:00 +4°C° 0 mm 3 mps 755 mmHg 80%
    23:00 +3°C° 0 mm 3 mps 755 mmHg 82%

    21 February, Thursday

    Time Temperature Precipitation Wind Pressure Humidity
    00:00 +3°C° 0 mm 3 mps 755 mmHg 83%
    01:00 +2°C° 0 mm 3 mps 755 mmHg 85%
    02:00 +2°C° 0 mm 3 mps 755 mmHg 85%
    03:00 +2°C° 0 mm 3 mps 755 mmHg 86%
    04:00 +2°C° 0 mm 3 mps 755 mmHg 86%
    05:00 +2°C° 0 mm 3 mps 756 mmHg 86%
    06:00 +2°C° 0 mm 3 mps 756 mmHg 86%
    07:00 +2°C° 0 mm 3 mps 756 mmHg 87%
    08:00 +3°C° 0 mm 3 mps 756 mmHg 82%
    09:00 +4°C° 0 mm 3 mps 756 mmHg 76%
    10:00 +5°C° 0 mm 4 mps 756 mmHg 71%
    11:00 +6°C° 0 mm 4 mps 756 mmHg 68%
    12:00 +7°C° 0 mm 4 mps 756 mmHg 65%
    13:00 +8°C° 0 mm 4 mps 756 mmHg 61%
    14:00 +8°C° 0 mm 4 mps 756 mmHg 64%
    15:00 +8°C° 0 mm 3 mps 756 mmHg 67%
    16:00 +8°C° 0 mm 3 mps 756 mmHg 69%
    17:00 +7°C° 0.1 mm 3 mps 756 mmHg 73%
    18:00 +7°C° 0.1 mm 3 mps 756 mmHg 77%
    19:00 +5°C° 0.1 mm 3 mps 756 mmHg 81%
    20:00 +5°C° 0.2 mm 3 mps 757 mmHg 82%
    21:00 +6°C° 0.2 mm 2 mps 757 mmHg 84%
    22:00 +6°C° 0.2 mm 2 mps 757 mmHg 85%
    23:00 +6°C° 0.1 mm 2 mps 757 mmHg 86%

    22 February, Friday

    Time Temperature Precipitation Wind Pressure Humidity
    00:00 +6°C° 0.1 mm 2 mps 758 mmHg 88%
    01:00 +6°C° 0.1 mm 2 mps 758 mmHg 89%
    02:00 +5°C° 0 mm 2 mps 758 mmHg 90%
    03:00 +5°C° 0 mm 2 mps 758 mmHg 92%
    04:00 +5°C° 0 mm 2 mps 758 mmHg 93%
    05:00 +5°C° 0.1 mm 2 mps 759 mmHg 94%
    06:00 +5°C° 0.1 mm 2 mps 759 mmHg 95%
    07:00 +5°C° 0.1 mm 2 mps 760 mmHg 96%
    08:00 +6°C° 0 mm 2 mps 761 mmHg 94%
    09:00 +6°C° 0 mm 2 mps 761 mmHg 93%
    10:00 +6°C° 0 mm 2 mps 762 mmHg 92%
    11:00 +7°C° 0 mm 2 mps 762 mmHg 88%
    12:00 +8°C° 0 mm 2 mps 763 mmHg 83%
    13:00 +8°C° 0 mm 2 mps 763 mmHg 79%
    14:00 +8°C° 0.1 mm 2 mps 763 mmHg 80%
    15:00 +8°C° 0.1 mm 2 mps 763 mmHg 81%
    16:00 +8°C° 0.1 mm 2 mps 764 mmHg 82%
    17:00 +7°C° 0 mm 2 mps 764 mmHg 85%
    18:00 +7°C° 0 mm 2 mps 765 mmHg 88%
    19:00 +6°C° 0 mm 2 mps 765 mmHg 90%
    20:00 +6°C° 0 mm 2 mps 766 mmHg 90%
    21:00 +6°C° 0 mm 1 mps 766 mmHg 90%
    22:00 +6°C° 0 mm 1 mps 766 mmHg 89%
    23:00 +6°C° 0 mm 1 mps 766 mmHg 86%
    Show more